Topeka, KS

6:45 PM CST on January 18, 2018 (GMT -0600)
Billard Municipal

Weather History for KTOP - February, 2012

Change the Weather History Date:

Saturday, February 4, 2012

  Actual Average Record
Temperature  
Mean Temperature 39 °F 31 °F  
Max Temperature 43 °F 42 °F 74 °F (1946)
Min Temperature 34 °F 21 °F -13 °F (1905)
Degree Days  
Heating Degree Days 26 34  
Month to date heating degree days 81 136  
Since 1 July heating degree days 2743 3246  
Cooling Degree Days 0 0  
Month to date cooling degree days 0 0  
Year to date cooling degree days 0 0  
Moisture  
Dew Point 37 °F    
Average Humidity 93    
Maximum Humidity 100    
Minimum Humidity 85    
Precipitation  
Precipitation 0.15 in 0.04 in 0.84 in (1986)
Month to date precipitation 1.36 0.16  
Year to date precipitation 1.38 1.02  
Snow  
Snow T in 0.10 in 12.90 in (2014)
Month to date snowfall T 0.7  
Year to date snowfall 0.1 5.6  
Since 1 July snowfall 0.2 12.1  
Snow Depth 0.00 in    
Sea Level Pressure  
Sea Level Pressure 30.14 in    
Wind  
Wind Speed 11 mph (North)    
Max Wind Speed 18 mph    
Max Gust Speed 22 mph    
Visibility 5 miles    
Events Rain , Snow    
T = Trace of Precipitation, MM = Missing Value Source: NWS Daily Summary

Daily Weather History Graph

Daily Weather History Graph

Search for Another Location

Airport or City:

Trip Planner

Search our weather history database for the weather conditions in past years. The results will help you decide how hot, cold, wet, or windy it might be!

Date:

Astronomy

Feb. 04, 2012 Rise Set
Actual Time 7:26 AM CST 5:46 PM CST
Civil Twilight 6:58 AM CST 6:14 PM CST
Nautical Twilight 6:26 AM CST 6:46 PM CST
Astronomical Twilight 5:55 AM CST 7:17 PM CST
Moon 2:45 PM CST (2/4) 4:52 AM CST (2/4)
Length of Visible Light 11h 15m
Length of Day
10h 19m
Waxing Gibbous, 89% of the Moon is Illuminated
Feb 4
Waxing Gibbous
Feb 7
Full
Feb 14
Last Quarter
Feb 21
New
Feb 29
First Quarter

Hourly Weather History & Observations

Time (CST) Temp. Windchill Dew Point Humidity Pressure Visibility Wind Dir Wind Speed Gust Speed Precip Events Conditions
12:03 AM 42.8 °F 39.3 °F 42.8 °F 100% 30.00 in 1.8 mi NNE 5.8 mph - 0.02 in Rain Light Rain
12:10 AM 42.8 °F 40.1 °F 42.8 °F 100% 30.01 in 2.5 mi NNE 4.6 mph - 0.04 in Rain Rain
12:24 AM 42.8 °F 40.1 °F 42.8 °F 100% 30.01 in 4.0 mi NNE 4.6 mph - 0.06 in Rain Light Rain
12:46 AM 42.8 °F 39.3 °F 42.8 °F 100% 30.01 in 2.5 mi North 5.8 mph - 0.09 in Rain Light Rain
12:53 AM 43.0 °F 40.3 °F 42.1 °F 97% 30.02 in 3.0 mi North 4.6 mph - 0.09 in Rain Light Rain
1:17 AM 42.8 °F 40.1 °F 42.8 °F 100% 30.01 in 2.5 mi NE 4.6 mph - 0.02 in Rain Light Rain
1:36 AM 42.8 °F 39.3 °F 42.8 °F 100% 30.00 in 3.0 mi NNE 5.8 mph - 0.03 in Rain Light Rain
1:53 AM 43.0 °F 39.5 °F 42.1 °F 97% 30.01 in 5.0 mi NNE 5.8 mph - 0.04 in   Overcast
2:53 AM 43.0 °F 38.8 °F 42.1 °F 97% 30.02 in 7.0 mi North 6.9 mph - 0.00 in Rain Light Rain
3:38 AM 42.8 °F 39.3 °F 42.8 °F 100% 30.01 in 6.0 mi NNE 5.8 mph - 0.01 in   Overcast
3:53 AM 42.1 °F 37.1 °F 41.0 °F 96% 30.03 in 6.0 mi North 8.1 mph - 0.01 in   Overcast
4:53 AM 39.9 °F 33.4 °F 39.0 °F 97% 30.04 in 3.0 mi North 10.4 mph - N/A   Overcast
5:53 AM 39.9 °F 33.9 °F 39.0 °F 97% 30.05 in 6.0 mi North 9.2 mph - N/A   Overcast
6:53 AM 39.9 °F 32.9 °F 39.0 °F 97% 30.07 in 4.0 mi North 11.5 mph - 0.00 in Rain Light Rain
7:53 AM 39.0 °F 32.3 °F 37.9 °F 96% 30.09 in 6.0 mi North 10.4 mph - 0.00 in   Overcast
8:53 AM 37.0 °F 33.3 °F 36.0 °F 96% 30.13 in 10.0 mi NNW 4.6 mph - 0.00 in   Overcast
9:53 AM 37.0 °F 31.0 °F 35.1 °F 93% 30.15 in 8.0 mi NW 8.1 mph - 0.00 in   Overcast
10:53 AM 37.0 °F 30.4 °F 36.0 °F 96% 30.17 in 3.0 mi North 9.2 mph - N/A   Overcast
11:38 AM 37.4 °F 31.4 °F 35.6 °F 93% 30.16 in 2.0 mi North 8.1 mph - N/A   Overcast
11:53 AM 37.9 °F 30.5 °F 36.0 °F 93% 30.18 in 1.8 mi North 11.5 mph - N/A   Overcast
12:21 PM 37.4 °F 29.8 °F 35.6 °F 93% 30.16 in 2.5 mi North 11.5 mph - 0.01 in Rain Light Rain
12:29 PM 37.4 °F 30.3 °F 35.6 °F 93% 30.16 in 2.5 mi NNW 10.4 mph - 0.01 in Rain Light Rain
12:53 PM 37.9 °F 29.2 °F 36.0 °F 93% 30.17 in 2.5 mi NNW 15.0 mph 18.4 mph 0.01 in Rain Light Rain
12:55 PM 37.4 °F 29.3 °F 35.6 °F 93% 30.16 in 3.0 mi NNW 12.7 mph 19.6 mph 0.00 in Rain Light Rain
1:13 PM 37.4 °F 29.3 °F 37.4 °F 100% 30.16 in 7.0 mi North 12.7 mph - 0.00 in   Overcast
1:24 PM 39.2 °F 32.0 °F 35.6 °F 87% 30.16 in 10.0 mi North 11.5 mph 19.6 mph 0.00 in   Overcast
1:53 PM 37.9 °F 30.5 °F 36.0 °F 93% 30.17 in 10.0 mi NNW 11.5 mph - 0.00 in   Overcast
2:53 PM 37.0 °F 28.5 °F 35.1 °F 93% 30.19 in 10.0 mi North 13.8 mph - N/A   Overcast
3:53 PM 37.0 °F 28.9 °F 34.0 °F 89% 30.21 in 8.0 mi NNW 12.7 mph - N/A   Overcast
4:53 PM 36.0 °F 28.0 °F 34.0 °F 93% 30.23 in 10.0 mi NNW 11.5 mph - N/A   Overcast
5:53 PM 35.1 °F 27.4 °F 33.1 °F 92% 30.26 in 9.0 mi NNW 10.4 mph - N/A   Overcast
6:53 PM 34.0 °F 25.5 °F 32.0 °F 92% 30.28 in 6.0 mi NNW 11.5 mph - 0.00 in Snow Light Snow
7:53 PM 34.0 °F 25.5 °F 32.0 °F 92% 30.30 in 5.0 mi NNW 11.5 mph - 0.00 in Snow Light Snow
8:53 PM 35.1 °F 26.4 °F 32.0 °F 89% 30.30 in 6.0 mi North 12.7 mph - 0.00 in Snow Light Snow
9:53 PM 35.1 °F 25.5 °F 32.0 °F 89% 30.32 in 8.0 mi North 15.0 mph 21.9 mph 0.00 in   Overcast
10:53 PM 34.0 °F 24.6 °F 32.0 °F 92% 30.32 in 3.0 mi North 13.8 mph - 0.00 in Snow Light Snow
11:53 PM 34.0 °F 24.6 °F 32.0 °F 92% 30.34 in 4.0 mi North 13.8 mph - 0.01 in Snow Light Snow